TAP50GT LEZL-LPPT

Flight info

Callsign TAP50GT
Flight time 0h 53m
Altitude 34000
Route ONUBA DCT NAPES DCT OSLEP DCT MINTA DCT VATZI
Aircraft A20N/M-SDE2E3FGHIRWXY/LB1

Departure

Time 2026-04-26 11:09
Airport Seville Airport (LEZL)

Arrival

Time 2026-04-26 12:02
Airport Lisbon Humberto Delgado Airport (LPPT)
Time Latitude Longitude Altitude Speed Heading
2026-04-26 10:42 37.42111 -5.90194 100 ft 0 kts 359°
2026-04-26 10:58 37.42089 -5.90193 98 ft 3 kts 353°
2026-04-26 10:58 37.42084 -5.90192 99 ft 0 kts 352°
2026-04-26 11:00 37.42085 -5.90192 100 ft 0 kts 352°
2026-04-26 11:00 37.42084 -5.90192 99 ft 1 kts 352°
2026-04-26 11:01 37.42076 -5.90191 98 ft 2 kts 351°
2026-04-26 11:01 37.42061 -5.90188 100 ft 2 kts 351°
2026-04-26 11:01 37.42039 -5.90182 102 ft 4 kts 326°
2026-04-26 11:01 37.42034 -5.90177 102 ft 0 kts 312°
2026-04-26 11:03 37.42042 -5.90194 100 ft 5 kts 296°
2026-04-26 11:03 37.42047 -5.90264 101 ft 10 kts 264°
2026-04-26 11:03 37.41992 -5.90306 102 ft 9 kts 187°
2026-04-26 11:04 37.41979 -5.90347 101 ft 7 kts 264°
2026-04-26 11:04 37.41981 -5.90433 100 ft 13 kts 269°
2026-04-26 11:04 37.41979 -5.90565 99 ft 17 kts 269°
2026-04-26 11:04 37.41975 -5.90737 96 ft 22 kts 268°
2026-04-26 11:05 37.41963 -5.90959 90 ft 28 kts 249°
2026-04-26 11:05 37.41895 -5.91106 89 ft 6 kts 239°
2026-04-26 11:05 37.41895 -5.91107 90 ft 0 kts 239°
2026-04-26 11:06 37.41892 -5.91111 90 ft 3 kts 239°
2026-04-26 11:06 37.41857 -5.91176 92 ft 15 kts 219°
2026-04-26 11:06 37.41789 -5.91168 91 ft 4 kts 113°
2026-04-26 11:07 37.41787 -5.91137 91 ft 1 kts 95°
2026-04-26 11:07 37.41786 -5.91118 93 ft 3 kts 95°
2026-04-26 11:07 37.41786 -5.91115 89 ft 0 kts 95°
2026-04-26 11:08 37.41790 -5.90877 94 ft 70 kts 88°
2026-04-26 11:08 37.41791 -5.89893 106 ft 150 kts 90°
2026-04-26 11:08 37.41786 -5.88468 700 ft 173 kts 90°
2026-04-26 11:09 37.41797 -5.86834 1467 ft 204 kts 89°
2026-04-26 11:09 37.41821 -5.84900 2014 ft 237 kts 91°
2026-04-26 11:09 37.41517 -5.82772 2797 ft 255 kts 120°
2026-04-26 11:09 37.40506 -5.81049 4113 ft 249 kts 149°
2026-04-26 11:10 37.38951 -5.80068 5054 ft 259 kts 172°
2026-04-26 11:10 37.37116 -5.79721 5728 ft 276 kts 185°
2026-04-26 11:10 37.35209 -5.80109 6657 ft 283 kts 209°
2026-04-26 11:10 37.33646 -5.81615 7493 ft 291 kts 243°
2026-04-26 11:11 37.32806 -5.84008 8018 ft 314 kts 252°
2026-04-26 11:11 37.32045 -5.86682 8615 ft 332 kts 249°
2026-04-26 11:11 37.31076 -5.89267 10028 ft 320 kts 240°
2026-04-26 11:11 37.29869 -5.91599 11195 ft 323 kts 233°
2026-04-26 11:12 37.28396 -5.93867 11634 ft 347 kts 227°
2026-04-26 11:12 37.26697 -5.96116 12311 ft 359 kts 225°
2026-04-26 11:12 37.24919 -5.98337 13218 ft 364 kts 224°
2026-04-26 11:12 37.23275 -6.00789 14053 ft 371 kts 239°
2026-04-26 11:13 37.22336 -6.03806 14863 ft 374 kts 260°
2026-04-26 11:13 37.22238 -6.07053 15703 ft 374 kts 279°
2026-04-26 11:13 37.22960 -6.10170 16536 ft 373 kts 295°
2026-04-26 11:13 37.24006 -6.13125 17377 ft 376 kts 296°
2026-04-26 11:14 37.24951 -6.16207 18224 ft 381 kts 291°
2026-04-26 11:14 37.25707 -6.19416 18965 ft 385 kts 287°
2026-04-26 11:14 37.26321 -6.22702 19679 ft 390 kts 284°
2026-04-26 11:14 37.26864 -6.26057 20388 ft 394 kts 283°
2026-04-26 11:15 37.27381 -6.29455 21091 ft 397 kts 283°
2026-04-26 11:15 37.27896 -6.32879 21785 ft 401 kts 283°
2026-04-26 11:15 37.28419 -6.36335 22464 ft 405 kts 283°
2026-04-26 11:15 37.28952 -6.39823 23136 ft 409 kts 283°
2026-04-26 11:16 37.29362 -6.43378 23768 ft 415 kts 276°
2026-04-26 11:16 37.29373 -6.46978 24329 ft 420 kts 268°
2026-04-26 11:16 37.28970 -6.50620 24888 ft 425 kts 260°
2026-04-26 11:16 37.28342 -6.54265 25439 ft 428 kts 260°
2026-04-26 11:17 37.27722 -6.57926 25977 ft 430 kts 260°
2026-04-26 11:17 37.27101 -6.61613 26498 ft 433 kts 260°
2026-04-26 11:17 37.26475 -6.65332 27026 ft 436 kts 260°
2026-04-26 11:17 37.25844 -6.69077 27526 ft 438 kts 260°
2026-04-26 11:18 37.25208 -6.72833 27946 ft 441 kts 260°
2026-04-26 11:18 37.24568 -6.76606 28059 ft 442 kts 260°
2026-04-26 11:18 37.23186 -6.84120 28068 ft 441 kts 258°
2026-04-26 11:19 37.21763 -6.91605 28073 ft 441 kts 258°
2026-04-26 11:19 37.20349 -6.99096 28072 ft 440 kts 258°
2026-04-26 11:20 37.19179 -7.05301 28076 ft 440 kts 258°
2026-04-26 11:20 37.17530 -7.13986 28079 ft 440 kts 258°
2026-04-26 11:21 37.16110 -7.21435 28076 ft 439 kts 258°
2026-04-26 11:21 37.14690 -7.28881 28081 ft 439 kts 258°
2026-04-26 11:22 37.13567 -7.36370 28080 ft 435 kts 270°
2026-04-26 11:22 37.13789 -7.40142 28079 ft 432 kts 282°
2026-04-26 11:22 37.14460 -7.43219 28076 ft 430 kts 292°
2026-04-26 11:23 37.16703 -7.50108 28081 ft 429 kts 294°
2026-04-26 11:23 37.18951 -7.57038 28078 ft 429 kts 294°
2026-04-26 11:24 37.21187 -7.63969 28086 ft 429 kts 294°
2026-04-26 11:24 37.23424 -7.70917 28075 ft 430 kts 294°
2026-04-26 11:25 37.25659 -7.77877 28084 ft 429 kts 293°
2026-04-26 11:25 37.27890 -7.84838 28078 ft 429 kts 293°
2026-04-26 11:26 37.30115 -7.91803 28074 ft 430 kts 293°
2026-04-26 11:26 37.32336 -7.98768 28069 ft 430 kts 293°
2026-04-26 11:27 37.34551 -8.05734 28078 ft 429 kts 293°
2026-04-26 11:27 37.36751 -8.12664 28074 ft 430 kts 293°
2026-04-26 11:28 37.38962 -8.19654 28076 ft 430 kts 293°
2026-04-26 11:28 37.41166 -8.26636 28080 ft 430 kts 293°
2026-04-26 11:29 37.43371 -8.33635 28077 ft 429 kts 293°
2026-04-26 11:29 37.45567 -8.40622 28081 ft 429 kts 293°
2026-04-26 11:30 37.47387 -8.46430 28079 ft 429 kts 293°
2026-04-26 11:30 37.49919 -8.54529 28011 ft 421 kts 292°
2026-04-26 11:31 37.50972 -8.57906 27896 ft 409 kts 292°
2026-04-26 11:31 37.51988 -8.61168 27775 ft 396 kts 292°
2026-04-26 11:31 37.52976 -8.64344 27643 ft 382 kts 292°
2026-04-26 11:31 37.53924 -8.67396 27514 ft 368 kts 292°
2026-04-26 11:32 37.54843 -8.70358 27370 ft 356 kts 292°
2026-04-26 11:32 37.55737 -8.73236 26992 ft 352 kts 293°
2026-04-26 11:32 37.56627 -8.76102 26503 ft 351 kts 292°
2026-04-26 11:32 37.57516 -8.78968 26040 ft 349 kts 292°
2026-04-26 11:33 37.58396 -8.81813 25609 ft 347 kts 292°
2026-04-26 11:33 37.59448 -8.84527 25149 ft 343 kts 308°
2026-04-26 11:33 37.61147 -8.86590 24680 ft 340 kts 329°
2026-04-26 11:33 37.63217 -8.87728 24244 ft 337 kts 342°
2026-04-26 11:34 37.65450 -8.88623 23824 ft 336 kts 343°
2026-04-26 11:34 37.67673 -8.89513 23386 ft 334 kts 343°
2026-04-26 11:34 37.69880 -8.90402 22917 ft 332 kts 342°
2026-04-26 11:34 37.72075 -8.91290 22455 ft 330 kts 342°
2026-04-26 11:35 37.74260 -8.92178 22010 ft 328 kts 342°
2026-04-26 11:35 37.76432 -8.93062 21575 ft 326 kts 342°
2026-04-26 11:35 37.78582 -8.93938 21145 ft 325 kts 342°
2026-04-26 11:35 37.80010 -8.94520 20863 ft 323 kts 343°
2026-04-26 11:36 37.82843 -8.95676 20313 ft 321 kts 343°
2026-04-26 11:36 37.84964 -8.96542 19901 ft 319 kts 343°
2026-04-26 11:36 37.87073 -8.97404 19499 ft 318 kts 343°
2026-04-26 11:36 37.89173 -8.98263 19099 ft 316 kts 343°
2026-04-26 11:37 37.91265 -8.99119 18711 ft 315 kts 343°
2026-04-26 11:37 37.93342 -8.99969 18299 ft 314 kts 343°
2026-04-26 11:37 37.95421 -9.00821 17868 ft 312 kts 343°
2026-04-26 11:37 37.97483 -9.01666 17447 ft 311 kts 343°
2026-04-26 11:38 37.99530 -9.02506 17041 ft 309 kts 343°
2026-04-26 11:38 38.01573 -9.03351 16630 ft 307 kts 343°
2026-04-26 11:38 38.03597 -9.04205 16224 ft 306 kts 343°
2026-04-26 11:38 38.05611 -9.05061 15826 ft 304 kts 343°
2026-04-26 11:39 38.07614 -9.05912 15422 ft 303 kts 343°
2026-04-26 11:39 38.09608 -9.06757 15052 ft 301 kts 343°
2026-04-26 11:39 38.10925 -9.07314 14792 ft 301 kts 343°
2026-04-26 11:39 38.13543 -9.08423 14295 ft 299 kts 343°
2026-04-26 11:40 38.15515 -9.09234 13921 ft 297 kts 348°
2026-04-26 11:40 38.17542 -9.09321 13493 ft 291 kts 13°
2026-04-26 11:40 38.19365 -9.08312 13056 ft 286 kts 39°
2026-04-26 11:40 38.20753 -9.06535 12649 ft 283 kts 50°
2026-04-26 11:41 38.21994 -9.04613 12283 ft 280 kts 52°
2026-04-26 11:42 38.30335 -8.92404 9836 ft 269 kts 36°
2026-04-26 11:43 38.32046 -8.91546 9428 ft 272 kts
2026-04-26 11:43 38.33927 -8.91779 9007 ft 277 kts 342°
2026-04-26 11:43 38.35567 -8.93070 8587 ft 281 kts 320°
2026-04-26 11:43 38.36946 -8.94840 8203 ft 281 kts 314°
2026-04-26 11:44 38.38255 -8.96676 7832 ft 279 kts 314°
2026-04-26 11:44 38.39263 -8.98781 7440 ft 281 kts 288°
2026-04-26 11:44 38.39421 -9.01226 7172 ft 276 kts 259°
2026-04-26 11:44 38.38718 -9.03412 7101 ft 260 kts 236°
2026-04-26 11:45 38.37705 -9.05271 7090 ft 257 kts 231°
2026-04-26 11:45 38.36630 -9.07109 7094 ft 258 kts 232°
2026-04-26 11:45 38.35582 -9.08953 7091 ft 257 kts 233°
2026-04-26 11:45 38.34697 -9.10940 7104 ft 259 kts 248°
2026-04-26 11:46 38.34237 -9.13155 7100 ft 260 kts 259°
2026-04-26 11:46 38.33909 -9.15409 7101 ft 259 kts 259°
2026-04-26 11:46 38.33572 -9.17660 7100 ft 259 kts 259°
2026-04-26 11:46 38.33229 -9.19912 7100 ft 259 kts 258°
2026-04-26 11:47 38.32890 -9.22134 7096 ft 259 kts 261°
2026-04-26 11:47 38.32809 -9.24416 7101 ft 259 kts 276°
2026-04-26 11:47 38.33130 -9.26668 7106 ft 259 kts 283°
2026-04-26 11:47 38.33502 -9.28906 7103 ft 258 kts 283°
2026-04-26 11:48 38.33863 -9.31145 7106 ft 258 kts 282°
2026-04-26 11:48 38.34219 -9.33386 7103 ft 258 kts 282°
2026-04-26 11:48 38.34597 -9.35620 7107 ft 257 kts 288°
2026-04-26 11:48 38.35299 -9.37701 7103 ft 256 kts 303°
2026-04-26 11:49 38.36298 -9.39583 7109 ft 255 kts 306°
2026-04-26 11:49 38.37286 -9.41429 7107 ft 256 kts 306°
2026-04-26 11:49 38.38276 -9.43303 7102 ft 255 kts 306°
2026-04-26 11:49 38.39280 -9.45209 7096 ft 256 kts 306°
2026-04-26 11:50 38.40316 -9.47049 7105 ft 255 kts 314°
2026-04-26 11:50 38.41607 -9.48524 7101 ft 252 kts 328°
2026-04-26 11:50 38.43071 -9.49743 7099 ft 252 kts 329°
2026-04-26 11:50 38.44529 -9.50968 7097 ft 251 kts 329°
2026-04-26 11:51 38.46061 -9.52014 7111 ft 247 kts 348°
2026-04-26 11:51 38.47743 -9.52049 7104 ft 242 kts 19°
2026-04-26 11:51 38.49187 -9.50998 6997 ft 237 kts 49°
2026-04-26 11:51 38.49973 -9.49200 6752 ft 233 kts 79°
2026-04-26 11:52 38.50178 -9.47163 6579 ft 231 kts 84°
2026-04-26 11:52 38.50364 -9.45149 6385 ft 232 kts 83°
2026-04-26 11:52 38.50575 -9.43116 6195 ft 231 kts 82°
2026-04-26 11:52 38.50801 -9.41101 6047 ft 225 kts 82°
2026-04-26 11:53 38.51026 -9.39173 5964 ft 213 kts 82°
2026-04-26 11:53 38.51243 -9.37353 5874 ft 202 kts 82°
2026-04-26 11:53 38.51448 -9.35630 5767 ft 191 kts 82°
2026-04-26 11:54 38.51841 -9.32320 5273 ft 188 kts 82°
2026-04-26 11:54 38.52035 -9.30675 5049 ft 186 kts 82°
2026-04-26 11:54 38.52226 -9.29043 4905 ft 189 kts 82°
2026-04-26 11:54 38.52419 -9.27391 4751 ft 187 kts 82°
2026-04-26 11:55 38.52612 -9.25748 4598 ft 186 kts 81°
2026-04-26 11:55 38.52834 -9.24120 4450 ft 187 kts 72°
2026-04-26 11:55 38.53509 -9.22718 4297 ft 188 kts 43°
2026-04-26 11:55 38.54641 -9.21933 4260 ft 181 kts 16°
2026-04-26 11:56 38.55855 -9.21922 4163 ft 172 kts 348°
2026-04-26 11:56 38.56930 -9.22473 4072 ft 161 kts 339°
2026-04-26 11:56 38.57920 -9.23016 3975 ft 149 kts 341°
2026-04-26 11:56 38.58926 -9.23349 3934 ft 151 kts
2026-04-26 11:57 38.59945 -9.23221 3776 ft 146 kts 13°
2026-04-26 11:57 38.60923 -9.22904 3589 ft 145 kts 23°
2026-04-26 11:57 38.61851 -9.22411 3417 ft 143 kts 27°
2026-04-26 11:57 38.62751 -9.21883 3338 ft 146 kts 27°
2026-04-26 11:58 38.63703 -9.21332 3060 ft 154 kts 26°
2026-04-26 11:58 38.64687 -9.20804 2858 ft 153 kts 25°
2026-04-26 11:58 38.65671 -9.20277 2676 ft 153 kts 25°
2026-04-26 11:58 38.66656 -9.19748 2467 ft 153 kts 25°
2026-04-26 11:59 38.67642 -9.19219 2283 ft 154 kts 24°
2026-04-26 11:59 38.68625 -9.18693 2060 ft 153 kts 24°
2026-04-26 11:59 38.69572 -9.18184 1862 ft 143 kts 23°
2026-04-26 11:59 38.70455 -9.17710 1678 ft 134 kts 22°
2026-04-26 12:00 38.71300 -9.17258 1514 ft 132 kts 22°
2026-04-26 12:00 38.72166 -9.16791 1332 ft 138 kts 22°
2026-04-26 12:00 38.73046 -9.16321 1145 ft 137 kts 23°
2026-04-26 12:00 38.73932 -9.15845 956 ft 139 kts 24°
2026-04-26 12:01 38.74819 -9.15370 780 ft 137 kts 25°
2026-04-26 12:01 38.75694 -9.14895 576 ft 138 kts 24°
2026-04-26 12:01 38.76570 -9.14412 369 ft 135 kts 21°
2026-04-26 12:01 38.77322 -9.14024 362 ft 79 kts 22°
2026-04-26 12:02 38.77686 -9.13832 365 ft 55 kts 21°
2026-04-26 12:02 38.78036 -9.13641 367 ft 54 kts 24°
2026-04-26 12:02 38.78305 -9.13445 364 ft 37 kts 45°
2026-04-26 12:02 38.78377 -9.13322 362 ft 0 kts 77°
2026-04-26 12:04 38.78376 -9.13315 364 ft 4 kts 94°
2026-04-26 12:04 38.78315 -9.13274 360 ft 15 kts 203°
2026-04-26 12:05 38.78193 -9.13329 359 ft 22 kts 202°
2026-04-26 12:05 38.78043 -9.13409 363 ft 25 kts 190°
2026-04-26 12:05 38.77878 -9.13380 349 ft 22 kts 169°
2026-04-26 12:05 38.77705 -9.13334 338 ft 29 kts 167°
2026-04-26 12:06 38.77563 -9.13315 336 ft 19 kts 170°
2026-04-26 12:06 38.77424 -9.13277 338 ft 22 kts 171°
2026-04-26 12:06 38.77271 -9.13246 337 ft 23 kts 169°
2026-04-26 12:06 38.77158 -9.13215 345 ft 14 kts 167°
2026-04-26 12:07 38.77052 -9.13185 336 ft 16 kts 168°
2026-04-26 12:07 38.76949 -9.13155 334 ft 14 kts 152°
2026-04-26 12:07 38.76931 -9.13118 334 ft 0 kts 98°
2026-04-26 12:08 38.76932 -9.13129 335 ft 2 kts 98°
2026-04-26 12:08 38.76935 -9.13147 338 ft 2 kts 114°
2026-04-26 12:08 38.76942 -9.13163 336 ft 0 kts 136°
2026-04-26 12:10 38.76892 -9.13140 337 ft 15 kts 166°
2026-04-26 12:10 38.76790 -9.13117 334 ft 15 kts 168°
2026-04-26 12:10 38.76754 -9.13061 336 ft 0 kts 78°
2026-04-26 12:10 38.76756 -9.13037 336 ft 4 kts 81°
2026-04-26 12:11 38.76760 -9.13014 332 ft 0 kts 77°
2026-04-26 12:11 38.76761 -9.13008 332 ft 0 kts 78°